Starlink 33830

operational
NORAD ID: 63587 Int'l Des: 2025-076 Owner: SPXS Country: US Constellation: starlink
LEOCIRCULAR

Starlink 33830について

説明を読み込み中...

リアルタイム位置

3D地球を読み込み中...

次回通過

高度履歴

Altitude vs Time

uPlot chart will show altitude changes over time

軌道要素

1 63587U 25076U 26036.34426022 .00036324 00000-0 13210-2 0 9996
2 63587 43.0004 144.3581 0001186 183.6540 176.4303 15.27630137 46886
Epoch: Feb 5, 2026 • Age: 10 hours

現在のステータス

高度 485.8 km
速度 7.63 km/s
衛星直下点 42.59°N, 164.07°W
打ち上げ日 Apr 14, 2025
運用期間 0.8 years
タイプ internet

技術仕様

分類 Payload
質量 575.00 kg
乾燥質量 530.00 kg
総質量 575.00 kg
長さ 0.30 m
直径 4.10 m
スパン 29.00 m
形状 Box + pan
製造者 SPXS
バスタイプ Starlink V2MO
フェーズステータス In Orbit
所有者/国 SPXS/US

大規模コンステレーション

Loading constellations...